This is the latest recevied weather packets stored in our database for station/object EA2MKR. If no packets are shown the sender has not sent any weather packets the latest 10 day(s).
| Time | Temp. | Humidity | Pressure | Rain* | Wind** | Luminosity | Snow |
|---|---|---|---|---|---|---|---|
| 1777288614 | 21.11° C | 63% | 955.3 hPa | 0 mm | - | - | - |
| 1777288384 | 21.11° C | 62% | 955.3 hPa | 0 mm | - | - | - |
| 1777288004 | 21.11° C | 65% | 955.4 hPa | 0 mm | - | - | - |
| 1777287694 | 20.56° C | 65% | 955.4 hPa | 0 mm | - | - | - |
| 1777287394 | 20.56° C | 65% | 955.5 hPa | 0 mm | - | - | - |
| 1777287091 | 20° C | 66% | 955.4 hPa | 0 mm | - | - | - |
| 1777286792 | 19.44° C | 66% | 955.5 hPa | 0 mm | - | - | - |
| 1777286492 | 19.44° C | 64% | 955.6 hPa | 0 mm | - | - | - |
| 1777286191 | 19.44° C | 72% | 955.6 hPa | 0 mm | - | - | - |
| 1777285891 | 18.89° C | 73% | 955.6 hPa | 0 mm | - | - | - |
| 1777285591 | 18.89° C | 75% | 955.7 hPa | 0 mm | - | - | - |
| 1777285291 | 18.33° C | 74% | 955.8 hPa | 0 mm | - | - | - |
| 1777285082 | 18.33° C | 76% | 955.9 hPa | 0 mm | - | - | - |
| 1777284691 | 18.33° C | 77% | 955.9 hPa | 0 mm | - | - | - |
| 1777284392 | 17.78° C | 77% | 955.9 hPa | 0 mm | - | - | - |
| 1777284181 | 17.78° C | 78% | 955.9 hPa | 0 mm | - | - | - |
| 1777283791 | 17.78° C | 77% | 956 hPa | 0 mm | - | - | - |
| 1777283491 | 17.22° C | 78% | 956 hPa | 0 mm | - | - | - |
| 1777283191 | 17.78° C | 78% | 956 hPa | 0 mm | - | - | - |
| 1777282981 | 17.22° C | 79% | 956.1 hPa | 0 mm | - | - | - |
| 1777282591 | 17.22° C | 80% | 956.1 hPa | 0 mm | - | - | - |
| 1777282291 | 16.67° C | 81% | 956.2 hPa | 0 mm | - | - | - |
| 1777281991 | 16.67° C | 81% | 956.1 hPa | 0 mm | - | - | - |
| 1777281692 | 16.67° C | 83% | 956.2 hPa | 0 mm | - | - | - |
| 1777281391 | 16.11° C | 82% | 956.2 hPa | 0 mm | - | - | - |
* Rain latest hour (hover to see other rain measurements)
** Current wind speed in m/s (hover to see current wind gust speed)